Year,Month,Day,Hour,Minute,Value (Times are PST for temperature in C)
2007,06,27,00,00,16.00
2007,06,27,00,01,16.00
2007,06,27,00,02,16.00
2007,06,27,00,03,16.00
2007,06,27,00,04,16.00
2007,06,27,00,05,16.00
2007,06,27,00,06,15.90
2007,06,27,00,07,15.90
2007,06,27,00,08,15.90
2007,06,27,00,09,15.80
2007,06,27,00,10,15.80
2007,06,27,00,11,15.80
2007,06,27,00,12,15.70
2007,06,27,00,13,15.70
2007,06,27,00,14,15.70
2007,06,27,00,15,15.60
2007,06,27,00,16,15.60
2007,06,27,00,17,15.50
2007,06,27,00,18,15.50
2007,06,27,00,19,15.40
2007,06,27,00,20,15.40
2007,06,27,00,21,15.30
2007,06,27,00,22,15.30
2007,06,27,00,23,15.20
2007,06,27,00,24,15.10
2007,06,27,00,25,15.00
2007,06,27,00,26,15.00
2007,06,27,00,27,15.00
2007,06,27,00,28,15.00
2007,06,27,00,29,14.90
2007,06,27,00,30,14.80
2007,06,27,00,31,14.70
2007,06,27,00,32,14.70
2007,06,27,00,33,14.50
2007,06,27,00,34,14.50
2007,06,27,00,35,14.40
2007,06,27,00,36,14.30
2007,06,27,00,37,14.30
2007,06,27,00,38,14.20
2007,06,27,00,39,14.10
2007,06,27,00,40,14.10
2007,06,27,00,41,14.10
2007,06,27,00,42,14.10
2007,06,27,00,43,14.00
2007,06,27,00,44,14.00
2007,06,27,00,45,14.00
2007,06,27,00,46,14.00
2007,06,27,00,47,14.00
2007,06,27,00,48,13.90
2007,06,27,00,49,13.90
2007,06,27,00,50,13.90
2007,06,27,00,51,13.90
2007,06,27,00,52,13.90
2007,06,27,00,53,13.80
2007,06,27,00,54,13.80
2007,06,27,00,55,13.90
2007,06,27,00,56,13.90
2007,06,27,00,57,13.80
2007,06,27,00,58,13.90
2007,06,27,00,59,13.90
2007,06,27,01,00,13.90
2007,06,27,01,01,13.90
2007,06,27,01,02,14.00
2007,06,27,01,03,14.00
2007,06,27,01,04,14.10
2007,06,27,01,05,14.10
2007,06,27,01,06,14.20
2007,06,27,01,07,14.20
2007,06,27,01,08,14.30
2007,06,27,01,09,14.30
2007,06,27,01,10,14.30
2007,06,27,01,11,14.30
2007,06,27,01,12,14.30
2007,06,27,01,13,14.30
2007,06,27,01,14,14.30
2007,06,27,01,15,14.30
2007,06,27,01,16,14.30
2007,06,27,01,17,14.20
2007,06,27,01,18,14.20
2007,06,27,07,02,12.70
2007,06,27,07,03,12.70
2007,06,27,07,04,12.70
2007,06,27,07,05,12.70
2007,06,27,07,06,12.70
2007,06,27,07,07,12.70
2007,06,27,07,08,12.70
2007,06,27,07,09,12.70
2007,06,27,07,10,12.70
2007,06,27,07,11,12.70
2007,06,27,07,12,12.70
2007,06,27,07,13,12.70
2007,06,27,07,14,12.70
2007,06,27,07,15,12.70
2007,06,27,07,16,12.70
2007,06,27,07,17,12.70
2007,06,27,07,18,12.70
2007,06,27,07,19,12.70
2007,06,27,07,20,12.70
2007,06,27,07,21,12.70
2007,06,27,07,22,12.80
2007,06,27,07,23,12.80
2007,06,27,07,24,12.80
2007,06,27,07,25,12.80
2007,06,27,07,26,12.80
2007,06,27,07,27,12.80
2007,06,27,07,28,12.90
2007,06,27,07,29,12.90
2007,06,27,07,30,12.90
2007,06,27,07,31,12.90
2007,06,27,07,32,13.00
2007,06,27,07,33,13.00
2007,06,27,07,34,13.00
2007,06,27,07,35,13.10
2007,06,27,07,36,13.10
2007,06,27,07,37,13.10
2007,06,27,07,38,13.20
2007,06,27,07,39,13.20
2007,06,27,07,40,13.20
2007,06,27,07,41,13.20
2007,06,27,07,42,13.20
2007,06,27,07,43,13.20
2007,06,27,07,44,13.20
2007,06,27,07,45,13.30
2007,06,27,07,46,13.30
2007,06,27,07,47,13.30
2007,06,27,07,48,13.30
2007,06,27,07,49,13.30
2007,06,27,07,50,13.30
2007,06,27,07,51,13.30
2007,06,27,07,52,13.30
2007,06,27,07,53,13.30
2007,06,27,07,54,13.30
2007,06,27,07,55,13.30
2007,06,27,07,56,13.30
2007,06,27,07,57,13.30
2007,06,27,07,58,13.30
2007,06,27,07,59,13.30
2007,06,27,08,00,13.30
2007,06,27,08,01,13.30
2007,06,27,08,02,13.30
2007,06,27,08,03,13.30
2007,06,27,08,04,13.30
2007,06,27,08,05,13.40
2007,06,27,08,06,13.40
2007,06,27,08,07,13.40
2007,06,27,08,08,13.40
2007,06,27,08,09,13.40
2007,06,27,08,10,13.50
2007,06,27,08,11,13.50
2007,06,27,08,12,13.60
2007,06,27,08,13,13.60
2007,06,27,08,14,13.60
2007,06,27,08,15,13.60
2007,06,27,08,16,13.70
2007,06,27,08,17,13.70
2007,06,27,08,18,13.80
2007,06,27,08,19,13.80
2007,06,27,08,20,13.80
2007,06,27,08,21,13.90
2007,06,27,08,22,13.90
2007,06,27,08,23,13.90
2007,06,27,08,24,14.00
2007,06,27,08,25,14.00
2007,06,27,08,26,14.00
2007,06,27,08,27,14.10
2007,06,27,08,28,14.10
2007,06,27,08,29,14.10
2007,06,27,08,30,14.20
2007,06,27,08,31,14.20
2007,06,27,08,32,14.20
2007,06,27,08,33,14.30
2007,06,27,08,34,14.30
2007,06,27,08,35,14.30
2007,06,27,08,36,14.30
2007,06,27,08,37,14.30
2007,06,27,08,38,14.30
2007,06,27,08,39,14.30
2007,06,27,08,40,14.30
2007,06,27,08,41,14.40
2007,06,27,08,42,14.40
2007,06,27,08,43,14.40
2007,06,27,08,44,14.50
2007,06,27,08,45,14.50
2007,06,27,08,46,14.50
2007,06,27,08,47,14.50
2007,06,27,08,48,14.60
2007,06,27,08,49,14.60
2007,06,27,08,50,14.60
2007,06,27,08,51,14.70
2007,06,27,08,52,14.70
2007,06,27,08,53,14.70
2007,06,27,08,54,14.70
2007,06,27,08,55,14.70
2007,06,27,08,56,14.70
2007,06,27,08,57,14.70
2007,06,27,08,58,14.70
2007,06,27,08,59,14.70
2007,06,27,09,00,14.70
2007,06,27,09,01,14.70
2007,06,27,09,02,14.80
2007,06,27,09,03,14.80
2007,06,27,09,04,14.70
2007,06,27,09,05,14.80
2007,06,27,09,06,14.80
2007,06,27,09,07,14.80
2007,06,27,09,08,14.80
2007,06,27,09,09,14.70
2007,06,27,09,10,14.70
2007,06,27,09,11,14.70
2007,06,27,09,12,14.70
2007,06,27,09,13,14.70
2007,06,27,09,14,14.70
2007,06,27,09,15,14.60
2007,06,27,09,16,14.60
2007,06,27,09,17,14.60
2007,06,27,09,18,14.60
2007,06,27,09,19,14.60
2007,06,27,09,20,14.70
2007,06,27,09,21,14.70
2007,06,27,09,22,14.70
2007,06,27,09,23,14.70
2007,06,27,09,24,14.70
2007,06,27,09,25,14.80
2007,06,27,09,26,14.70
2007,06,27,09,27,14.70
2007,06,27,09,28,14.60
2007,06,27,09,29,14.50
2007,06,27,09,30,14.40
2007,06,27,09,31,14.30
2007,06,27,09,32,14.20
2007,06,27,09,33,14.20
2007,06,27,09,34,14.20
2007,06,27,09,35,14.20
2007,06,27,09,36,14.30
2007,06,27,09,37,14.30
2007,06,27,09,38,14.30
2007,06,27,09,39,14.40
2007,06,27,09,40,14.50
2007,06,27,09,41,14.50
2007,06,27,09,42,14.50
2007,06,27,09,43,14.60
2007,06,27,09,44,14.70
2007,06,27,09,45,14.70
2007,06,27,09,46,14.80
2007,06,27,09,47,15.00
2007,06,27,09,48,15.00
2007,06,27,09,49,15.00
2007,06,27,09,50,15.00
2007,06,27,09,51,15.10
2007,06,27,09,52,15.20
2007,06,27,09,53,15.30
2007,06,27,09,54,15.40
2007,06,27,09,55,15.50
2007,06,27,09,56,15.50
2007,06,27,09,57,15.60
2007,06,27,09,58,15.60
2007,06,27,09,59,15.70
2007,06,27,10,00,15.70
2007,06,27,10,01,15.70
2007,06,27,10,02,15.80
2007,06,27,10,03,15.80
2007,06,27,10,04,15.90
2007,06,27,10,05,16.00
2007,06,27,10,06,16.00
2007,06,27,10,07,16.10
2007,06,27,10,08,16.10
2007,06,27,10,09,16.20
2007,06,27,10,10,16.30
2007,06,27,10,11,16.40
2007,06,27,10,12,16.50
2007,06,27,10,13,16.60
2007,06,27,10,14,16.70
2007,06,27,10,15,16.80
2007,06,27,10,16,16.90
2007,06,27,10,17,17.00
2007,06,27,10,18,17.10
2007,06,27,10,19,17.20
2007,06,27,10,20,17.30
2007,06,27,10,21,17.30
2007,06,27,10,22,17.30
2007,06,27,10,23,17.30
2007,06,27,10,24,17.30
2007,06,27,10,25,17.30
2007,06,27,10,26,17.30
2007,06,27,10,27,17.40
2007,06,27,10,28,17.50
2007,06,27,10,29,17.70
2007,06,27,10,30,17.70
2007,06,27,10,31,17.80
2007,06,27,10,32,17.80
2007,06,27,10,33,17.80
2007,06,27,10,34,17.80
2007,06,27,10,35,17.90
2007,06,27,10,36,18.00
2007,06,27,10,37,18.00
2007,06,27,10,38,17.90
2007,06,27,10,39,17.90
2007,06,27,10,40,17.90
2007,06,27,10,41,17.90
2007,06,27,10,42,17.80
2007,06,27,10,43,17.90
2007,06,27,10,44,18.00
2007,06,27,10,45,18.10
2007,06,27,10,46,18.10
2007,06,27,10,47,18.10
2007,06,27,10,48,18.10
2007,06,27,10,49,18.10
2007,06,27,10,50,18.10
2007,06,27,10,51,18.00
2007,06,27,10,52,17.90
2007,06,27,10,53,17.70
2007,06,27,10,54,17.60
2007,06,27,10,55,17.50
2007,06,27,10,56,17.30
2007,06,27,10,57,17.20
2007,06,27,10,58,17.10
2007,06,27,10,59,17.10
2007,06,27,11,00,17.10
2007,06,27,11,01,17.10
2007,06,27,11,02,17.20
2007,06,27,11,03,17.20
2007,06,27,11,04,17.20
2007,06,27,11,05,17.30
2007,06,27,11,06,17.40
2007,06,27,11,07,17.50
2007,06,27,11,08,17.60
2007,06,27,11,09,17.60
2007,06,27,11,10,17.60
2007,06,27,11,11,17.60
2007,06,27,11,12,17.60
2007,06,27,11,13,17.70
2007,06,27,11,14,17.80
2007,06,27,11,15,17.80
2007,06,27,11,16,17.80
2007,06,27,11,17,17.90
2007,06,27,11,18,17.90
2007,06,27,11,19,18.00
2007,06,27,11,20,18.00
2007,06,27,11,21,18.00
2007,06,27,11,22,18.10
2007,06,27,11,23,18.20
2007,06,27,11,24,18.20
2007,06,27,11,25,18.20
2007,06,27,11,26,18.20
2007,06,27,11,27,18.20
2007,06,27,11,28,18.30
2007,06,27,11,29,18.30
2007,06,27,11,30,18.30
2007,06,27,11,31,18.40
2007,06,27,11,32,18.40
2007,06,27,11,33,18.40
2007,06,27,11,34,18.40
2007,06,27,11,35,18.40
2007,06,27,11,36,18.50
2007,06,27,11,37,18.60
2007,06,27,11,38,18.70
2007,06,27,11,39,18.80
2007,06,27,11,40,18.90
2007,06,27,11,41,19.10
2007,06,27,11,42,19.30
2007,06,27,11,43,19.50
2007,06,27,11,44,19.60
2007,06,27,11,45,19.70
2007,06,27,11,46,19.70
2007,06,27,11,47,19.80
2007,06,27,11,48,19.90
2007,06,27,11,49,20.00
2007,06,27,11,50,19.90
2007,06,27,11,51,19.90
2007,06,27,11,52,19.70
2007,06,27,11,53,19.60
2007,06,27,11,54,19.40
2007,06,27,11,55,19.30
2007,06,27,11,56,19.30
2007,06,27,11,57,19.30
2007,06,27,11,58,19.30
2007,06,27,11,59,19.40
2007,06,27,12,00,19.50
2007,06,27,12,01,19.50
2007,06,27,12,02,19.60
2007,06,27,12,03,19.70
2007,06,27,12,04,19.80
2007,06,27,12,05,19.80
2007,06,27,12,06,19.80
2007,06,27,12,07,19.90
2007,06,27,12,08,20.00
2007,06,27,12,09,20.00
2007,06,27,12,10,19.80
2007,06,27,12,11,19.80
2007,06,27,12,12,19.80
2007,06,27,12,13,19.70
2007,06,27,12,14,19.70
2007,06,27,12,15,19.60
2007,06,27,12,16,19.60
2007,06,27,12,17,19.50
2007,06,27,12,18,19.30
2007,06,27,12,19,19.30
2007,06,27,12,20,19.20
2007,06,27,12,21,19.10
2007,06,27,12,22,19.10
2007,06,27,12,23,19.10
2007,06,27,12,24,19.20
2007,06,27,12,25,19.30
2007,06,27,12,26,19.30
2007,06,27,12,27,19.30
2007,06,27,12,28,19.30
2007,06,27,12,29,19.30
2007,06,27,12,30,19.50
2007,06,27,12,31,19.60
2007,06,27,12,32,19.60
2007,06,27,12,33,19.50
2007,06,27,12,34,19.40
2007,06,27,12,35,19.40
2007,06,27,12,36,19.40
2007,06,27,12,37,19.30
2007,06,27,12,38,19.20
2007,06,27,12,39,19.10
2007,06,27,12,40,19.20
2007,06,27,12,41,19.10
2007,06,27,12,42,19.10
2007,06,27,12,43,19.10
2007,06,27,12,44,19.10
2007,06,27,12,45,19.00
2007,06,27,12,46,19.00
2007,06,27,12,47,18.90
2007,06,27,12,48,18.80
2007,06,27,12,49,18.80
2007,06,27,12,50,18.70
2007,06,27,12,51,18.80
2007,06,27,12,52,18.80
2007,06,27,12,53,18.90
2007,06,27,12,54,18.90
2007,06,27,12,55,18.80
2007,06,27,12,56,18.80
2007,06,27,12,57,18.90
2007,06,27,12,58,19.00
2007,06,27,12,59,19.10
2007,06,27,13,00,19.20
2007,06,27,13,01,19.10
2007,06,27,13,02,19.00
2007,06,27,13,03,18.90
2007,06,27,13,04,19.00
2007,06,27,13,05,19.00
2007,06,27,13,06,19.10
2007,06,27,13,07,19.10
2007,06,27,13,08,19.00
2007,06,27,13,09,18.90
2007,06,27,13,10,18.90
2007,06,27,13,11,18.90
2007,06,27,13,12,18.80
2007,06,27,13,13,18.80
2007,06,27,13,14,18.80
2007,06,27,13,15,18.90
2007,06,27,13,16,19.00
2007,06,27,13,17,19.00
2007,06,27,13,18,18.90
2007,06,27,13,19,18.90
2007,06,27,13,20,18.80
2007,06,27,13,21,18.80
2007,06,27,13,22,18.90
2007,06,27,13,23,19.10
2007,06,27,13,24,19.20
2007,06,27,13,25,19.40
2007,06,27,13,26,19.40
2007,06,27,13,27,19.40
2007,06,27,13,28,19.40
2007,06,27,13,29,19.40
2007,06,27,13,30,19.40
2007,06,27,13,31,19.30
2007,06,27,13,32,19.20
2007,06,27,13,33,19.20
2007,06,27,13,34,19.20
2007,06,27,13,35,19.30
2007,06,27,13,36,19.30
2007,06,27,13,37,19.30
2007,06,27,13,38,19.40
2007,06,27,13,39,19.30
2007,06,27,13,40,19.30
2007,06,27,13,41,19.30
2007,06,27,13,42,19.30
2007,06,27,13,43,19.30
2007,06,27,13,44,19.40
2007,06,27,13,45,19.30
2007,06,27,13,46,19.30
2007,06,27,13,47,19.30
2007,06,27,13,48,19.20
2007,06,27,13,49,19.20
2007,06,27,13,50,19.10
2007,06,27,13,51,19.10
2007,06,27,13,52,19.20
2007,06,27,13,53,19.30
2007,06,27,13,54,19.30
2007,06,27,13,55,19.30
2007,06,27,13,56,19.30
2007,06,27,13,57,19.30
2007,06,27,13,58,19.20
2007,06,27,13,59,19.20
2007,06,27,14,00,19.20
2007,06,27,14,01,19.20
2007,06,27,14,02,19.20
2007,06,27,14,03,19.10
2007,06,27,14,04,19.10
2007,06,27,14,05,19.10
2007,06,27,14,06,19.10
2007,06,27,14,07,19.20
2007,06,27,14,08,19.30
2007,06,27,14,09,19.30
2007,06,27,14,10,19.30
2007,06,27,14,11,19.20
2007,06,27,14,12,19.20
2007,06,27,14,13,19.20
2007,06,27,14,14,19.30
2007,06,27,14,15,19.40
2007,06,27,14,16,19.60
2007,06,27,14,17,19.70
2007,06,27,14,18,19.70
2007,06,27,14,19,19.80
2007,06,27,14,20,19.80
2007,06,27,14,21,19.70
2007,06,27,14,22,19.70
2007,06,27,14,23,19.70
2007,06,27,14,24,19.70
2007,06,27,14,25,19.80
2007,06,27,14,26,19.80
2007,06,27,14,27,19.90
2007,06,27,14,28,19.90
2007,06,27,14,29,19.80
2007,06,27,14,30,19.80
2007,06,27,14,31,19.70
2007,06,27,14,32,19.70
2007,06,27,14,33,19.70
2007,06,27,14,34,19.80
2007,06,27,14,35,19.80
2007,06,27,14,36,19.80
2007,06,27,14,37,19.90
2007,06,27,14,38,19.90
2007,06,27,14,39,19.90
2007,06,27,14,40,19.90
2007,06,27,14,41,19.90
2007,06,27,14,42,19.90
2007,06,27,14,43,20.00
2007,06,27,14,44,20.00
2007,06,27,14,45,20.00
2007,06,27,14,46,20.00
2007,06,27,14,47,20.00
2007,06,27,14,48,20.00
2007,06,27,14,49,20.00
2007,06,27,14,50,19.90
2007,06,27,14,51,20.00
2007,06,27,14,52,20.00
2007,06,27,14,53,20.00
2007,06,27,14,54,20.10
2007,06,27,14,55,20.20
2007,06,27,14,56,20.20
2007,06,27,14,57,20.20
2007,06,27,14,58,20.20
2007,06,27,14,59,20.20
2007,06,27,15,00,20.20
2007,06,27,15,01,20.40
2007,06,27,15,02,20.40
2007,06,27,15,03,20.40
2007,06,27,15,04,20.40
2007,06,27,15,05,20.40
2007,06,27,15,06,20.50
2007,06,27,15,07,20.50
2007,06,27,15,08,20.50
2007,06,27,15,09,20.50
2007,06,27,15,10,20.40
2007,06,27,15,11,20.30
2007,06,27,15,12,20.30
2007,06,27,15,13,20.30
2007,06,27,15,14,20.30
2007,06,27,15,15,20.40
2007,06,27,15,16,20.50
2007,06,27,15,17,20.50
2007,06,27,15,18,20.50
2007,06,27,15,19,20.50
2007,06,27,15,20,20.60
2007,06,27,15,21,20.60
2007,06,27,15,22,20.60
2007,06,27,15,23,20.50
2007,06,27,15,24,20.50
2007,06,27,15,25,20.50
2007,06,27,15,26,20.50
2007,06,27,15,27,20.50
2007,06,27,15,28,20.50
2007,06,27,15,29,20.40
2007,06,27,15,30,20.30
2007,06,27,15,31,20.30
2007,06,27,15,32,20.30
2007,06,27,15,33,20.20
2007,06,27,15,34,20.20
2007,06,27,15,35,20.20
2007,06,27,15,36,20.10
2007,06,27,15,37,20.20
2007,06,27,15,38,20.20
2007,06,27,15,39,20.20
2007,06,27,15,40,20.20
2007,06,27,15,41,20.20
2007,06,27,15,42,20.20
2007,06,27,15,43,20.20
2007,06,27,15,44,20.30
2007,06,27,15,45,20.40
2007,06,27,15,46,20.40
2007,06,27,15,47,20.40
2007,06,27,15,48,20.40
2007,06,27,15,49,20.30
2007,06,27,15,50,20.30
2007,06,27,15,51,20.20
2007,06,27,15,52,20.20
2007,06,27,15,53,20.20
2007,06,27,15,54,20.10
2007,06,27,15,55,20.10
2007,06,27,15,56,20.20
2007,06,27,15,57,20.20
2007,06,27,15,58,20.20
2007,06,27,15,59,20.20
2007,06,27,16,00,20.40
2007,06,27,16,01,20.60
2007,06,27,16,02,20.80
2007,06,27,16,03,20.80
2007,06,27,16,04,20.80
2007,06,27,16,05,20.80
2007,06,27,16,06,20.90
2007,06,27,16,07,21.00
2007,06,27,16,08,20.90
2007,06,27,16,09,20.80
2007,06,27,16,10,20.70
2007,06,27,16,11,20.70
2007,06,27,16,12,20.70
2007,06,27,16,13,20.60
2007,06,27,16,14,20.60
2007,06,27,16,15,20.60
2007,06,27,16,16,20.50
2007,06,27,16,17,20.50
2007,06,27,16,18,20.50
2007,06,27,16,19,20.40
2007,06,27,16,20,20.30
2007,06,27,16,21,20.30
2007,06,27,16,22,20.30
2007,06,27,16,23,20.30
2007,06,27,16,24,20.40
2007,06,27,16,25,20.50
2007,06,27,16,26,20.60
2007,06,27,16,27,20.60
2007,06,27,16,28,20.60
2007,06,27,16,29,20.60
2007,06,27,16,30,20.70
2007,06,27,16,31,20.70
2007,06,27,16,32,20.70
2007,06,27,16,33,20.60
2007,06,27,16,34,20.60
2007,06,27,16,35,20.60
2007,06,27,16,36,20.70
2007,06,27,16,37,20.70
2007,06,27,16,38,20.80
2007,06,27,16,39,20.70
2007,06,27,16,40,20.70
2007,06,27,16,41,20.70
2007,06,27,16,42,20.60
2007,06,27,16,43,20.50
2007,06,27,16,44,20.30
2007,06,27,16,45,20.30
2007,06,27,16,46,20.40
2007,06,27,16,47,20.40
2007,06,27,16,48,20.40
2007,06,27,16,49,20.50
2007,06,27,16,50,20.60
2007,06,27,16,51,20.80
2007,06,27,16,52,20.80
2007,06,27,16,53,20.80
2007,06,27,16,54,20.80
2007,06,27,16,55,20.80
2007,06,27,16,56,20.90
2007,06,27,16,57,20.90
2007,06,27,16,58,20.90
2007,06,27,16,59,20.70
2007,06,27,17,00,20.60
2007,06,27,17,01,20.50
2007,06,27,17,02,20.50
2007,06,27,17,03,20.40
2007,06,27,17,04,20.40
2007,06,27,17,05,20.40
2007,06,27,17,06,20.40
2007,06,27,17,07,20.50
2007,06,27,17,08,20.50
2007,06,27,17,09,20.50
2007,06,27,17,10,20.30
2007,06,27,17,11,20.30
2007,06,27,17,12,20.20
2007,06,27,17,13,20.00
2007,06,27,17,14,19.90
2007,06,27,17,15,20.00
2007,06,27,17,16,20.10
2007,06,27,17,17,20.10
2007,06,27,17,18,20.10
2007,06,27,17,19,20.00
2007,06,27,17,20,19.80
2007,06,27,17,21,19.90
2007,06,27,17,22,19.90
2007,06,27,17,23,19.90
2007,06,27,17,24,19.90
2007,06,27,17,25,19.90
2007,06,27,17,26,19.90
2007,06,27,17,27,19.90
2007,06,27,17,28,20.00
2007,06,27,17,29,20.10
2007,06,27,17,30,20.20
2007,06,27,17,31,20.20
2007,06,27,17,32,20.20
2007,06,27,17,33,20.20
2007,06,27,17,34,20.20
2007,06,27,17,35,20.20
2007,06,27,17,36,20.30
2007,06,27,17,37,20.40
2007,06,27,17,38,20.40
2007,06,27,17,39,20.50
2007,06,27,17,40,20.60
2007,06,27,17,41,20.70
2007,06,27,17,42,20.80
2007,06,27,17,43,20.90
2007,06,27,17,44,21.00
2007,06,27,17,45,21.10
2007,06,27,17,46,21.10
2007,06,27,17,47,21.10
2007,06,27,17,48,21.10
2007,06,27,17,49,21.10
2007,06,27,17,50,21.00
2007,06,27,17,51,20.80
2007,06,27,17,52,20.80
2007,06,27,17,53,20.60
2007,06,27,17,54,20.60
2007,06,27,17,55,20.50
2007,06,27,17,56,20.60
2007,06,27,17,57,20.50
2007,06,27,17,58,20.40
2007,06,27,17,59,20.50
2007,06,27,18,00,20.60
2007,06,27,18,01,20.60
2007,06,27,18,02,20.60
2007,06,27,18,03,20.60
2007,06,27,18,04,20.50
2007,06,27,18,05,20.40
2007,06,27,18,06,20.40
2007,06,27,18,07,20.30
2007,06,27,18,08,20.30
2007,06,27,18,09,20.30
2007,06,27,18,10,20.30
2007,06,27,18,11,20.30
2007,06,27,18,12,20.20
2007,06,27,18,13,20.20
2007,06,27,18,14,20.00
2007,06,27,18,15,20.00
2007,06,27,18,16,19.90
2007,06,27,18,17,19.80
2007,06,27,18,18,19.80
2007,06,27,18,19,19.90
2007,06,27,18,20,19.90
2007,06,27,18,21,19.90
2007,06,27,18,22,19.90
2007,06,27,18,23,19.80
2007,06,27,18,24,19.80
2007,06,27,18,25,19.80
2007,06,27,18,26,19.70
2007,06,27,18,27,19.70
2007,06,27,18,28,19.70
2007,06,27,18,29,19.70
2007,06,27,18,30,19.60
2007,06,27,18,31,19.50
2007,06,27,18,32,19.50
2007,06,27,18,33,19.40
2007,06,27,18,34,19.40
2007,06,27,18,35,19.30
2007,06,27,18,36,19.30
2007,06,27,18,37,19.30
2007,06,27,18,38,19.20
2007,06,27,18,39,19.20
2007,06,27,18,40,19.20
2007,06,27,18,41,19.20
2007,06,27,18,42,19.20
2007,06,27,18,43,19.20
2007,06,27,18,44,19.20
2007,06,27,18,45,19.20
2007,06,27,18,46,19.20
2007,06,27,18,47,19.20
2007,06,27,18,48,19.20
2007,06,27,18,49,19.30
2007,06,27,18,50,19.30
2007,06,27,18,51,19.30
2007,06,27,18,52,19.30
2007,06,27,18,53,19.20
2007,06,27,18,54,19.20
2007,06,27,18,55,19.20
2007,06,27,18,56,19.20
2007,06,27,18,57,19.20
2007,06,27,18,58,19.20
2007,06,27,18,59,19.20
2007,06,27,19,00,19.20
2007,06,27,19,01,19.10
2007,06,27,19,02,19.10
2007,06,27,19,03,19.10
2007,06,27,19,04,19.10
2007,06,27,19,05,19.10
2007,06,27,19,06,19.10
2007,06,27,19,07,19.10
2007,06,27,19,08,19.00
2007,06,27,19,09,19.00
2007,06,27,19,10,19.00
2007,06,27,19,11,19.10
2007,06,27,19,12,19.10
2007,06,27,19,13,19.10
2007,06,27,19,14,19.10
2007,06,27,19,15,19.00
2007,06,27,19,16,19.00
2007,06,27,19,17,19.10
2007,06,27,19,18,19.10
2007,06,27,19,19,19.10
2007,06,27,19,20,19.00
2007,06,27,19,21,19.00
2007,06,27,19,22,19.00
2007,06,27,19,23,19.00
2007,06,27,19,24,19.00
2007,06,27,19,25,19.00
2007,06,27,19,26,19.00
2007,06,27,19,27,19.00
2007,06,27,19,28,19.00
2007,06,27,19,29,19.10
2007,06,27,19,30,19.10
2007,06,27,19,31,19.10
2007,06,27,19,32,19.10
2007,06,27,19,33,19.00
2007,06,27,19,34,19.00
2007,06,27,19,35,19.00
2007,06,27,19,36,18.90
2007,06,27,19,37,18.90
2007,06,27,19,38,18.90
2007,06,27,19,39,18.90
2007,06,27,19,40,18.90
2007,06,27,19,41,18.80
2007,06,27,19,42,18.70
2007,06,27,19,43,18.60
2007,06,27,19,44,18.60
2007,06,27,19,45,18.50
2007,06,27,19,46,18.40
2007,06,27,19,47,18.40
2007,06,27,19,48,18.40
2007,06,27,19,49,18.30
2007,06,27,19,50,18.30
2007,06,27,19,51,18.30
2007,06,27,19,52,18.30
2007,06,27,19,53,18.20
2007,06,27,19,54,18.20
2007,06,27,19,55,18.10
2007,06,27,19,56,18.10
2007,06,27,19,57,18.00
2007,06,27,19,58,17.90
2007,06,27,19,59,17.80
2007,06,27,20,00,17.80
2007,06,27,20,01,17.70
2007,06,27,20,02,17.70
2007,06,27,20,03,17.60
2007,06,27,20,04,17.60
2007,06,27,20,05,17.60
2007,06,27,20,06,17.50
2007,06,27,20,07,17.50
2007,06,27,20,08,17.50
2007,06,27,20,09,17.50
2007,06,27,20,10,17.40
2007,06,27,20,11,17.40
2007,06,27,20,12,17.40
2007,06,27,20,13,17.40
2007,06,27,20,14,17.30
2007,06,27,20,15,17.30
2007,06,27,20,16,17.20
2007,06,27,20,17,17.20
2007,06,27,20,18,17.20
2007,06,27,20,19,17.10
2007,06,27,20,20,17.10
2007,06,27,20,21,17.10
2007,06,27,20,22,17.10
2007,06,27,20,23,17.10
2007,06,27,20,24,17.10
2007,06,27,20,25,17.10
2007,06,27,20,26,17.00
2007,06,27,20,27,17.00
2007,06,27,20,28,17.00
2007,06,27,20,29,16.90
2007,06,27,20,30,16.90
2007,06,27,20,31,16.90
2007,06,27,20,32,16.90
2007,06,27,20,33,16.90
2007,06,27,20,34,16.90
2007,06,27,20,35,16.90
2007,06,27,20,36,16.90
2007,06,27,20,37,16.80
2007,06,27,20,38,16.80
2007,06,27,20,39,16.80
2007,06,27,20,40,16.80
2007,06,27,20,41,16.80
2007,06,27,20,42,16.70
2007,06,27,20,43,16.70
2007,06,27,20,44,16.70
2007,06,27,20,45,16.70
2007,06,27,20,46,16.70
2007,06,27,20,47,16.70
2007,06,27,20,48,16.70
2007,06,27,20,49,16.70
2007,06,27,20,50,16.70
2007,06,27,20,51,16.60
2007,06,27,20,52,16.60
2007,06,27,20,53,16.60
2007,06,27,20,54,16.60
2007,06,27,20,55,16.60
2007,06,27,20,56,16.60
2007,06,27,20,57,16.50
2007,06,27,20,58,16.50
2007,06,27,20,59,16.50
2007,06,27,21,00,16.50
2007,06,27,21,01,16.50
2007,06,27,21,02,16.50
2007,06,27,21,03,16.50
2007,06,27,21,04,16.50
2007,06,27,21,05,16.50
2007,06,27,21,06,16.60
2007,06,27,21,07,16.60
2007,06,27,21,08,16.60
2007,06,27,21,09,16.60
2007,06,27,21,10,16.60
2007,06,27,21,11,16.60
2007,06,27,21,12,16.60
2007,06,27,21,13,16.60
2007,06,27,21,14,16.60
2007,06,27,21,15,16.60
2007,06,27,21,16,16.60
2007,06,27,21,17,16.60
2007,06,27,21,18,16.50
2007,06,27,21,19,16.50
2007,06,27,21,20,16.50
2007,06,27,21,21,16.50
2007,06,27,21,22,16.50
2007,06,27,21,23,16.50
2007,06,27,21,24,16.50
2007,06,27,21,25,16.50
2007,06,27,21,26,16.50
2007,06,27,21,27,16.50
2007,06,27,21,28,16.50
2007,06,27,21,29,16.50
2007,06,27,21,30,16.50
2007,06,27,21,31,16.50
2007,06,27,21,32,16.50
2007,06,27,21,33,16.50
2007,06,27,21,34,16.50
2007,06,27,21,35,16.40
2007,06,27,21,36,16.40
2007,06,27,21,37,16.40
2007,06,27,21,38,16.40
2007,06,27,21,39,16.40
2007,06,27,21,40,16.40
2007,06,27,21,41,16.40
2007,06,27,21,42,16.40
2007,06,27,21,43,16.40
2007,06,27,21,44,16.30
2007,06,27,21,45,16.30
2007,06,27,21,46,16.30
2007,06,27,21,47,16.30
2007,06,27,21,48,16.30
2007,06,27,21,49,16.30
2007,06,27,21,50,16.30
2007,06,27,21,51,16.20
2007,06,27,21,52,16.20
2007,06,27,21,53,16.20
2007,06,27,21,54,16.20
2007,06,27,21,55,16.20
2007,06,27,21,56,16.10
2007,06,27,21,57,16.10
2007,06,27,21,58,16.10
2007,06,27,21,59,16.10
2007,06,27,22,00,16.10
2007,06,27,22,01,16.10
2007,06,27,22,02,16.10
2007,06,27,22,03,16.10
2007,06,27,22,04,16.10
2007,06,27,22,05,16.10
2007,06,27,22,06,16.10
2007,06,27,22,07,16.10
2007,06,27,22,08,16.10
2007,06,27,22,09,16.10
2007,06,27,22,10,16.20
2007,06,27,22,11,16.20
2007,06,27,22,12,16.20
2007,06,27,22,13,16.20
2007,06,27,22,14,16.20
2007,06,27,22,15,16.30
2007,06,27,22,16,16.30
2007,06,27,22,17,16.30
2007,06,27,22,18,16.30
2007,06,27,22,19,16.30
2007,06,27,22,20,16.30
2007,06,27,22,21,16.30
2007,06,27,22,22,16.40
2007,06,27,22,23,16.40
2007,06,27,22,24,16.40
2007,06,27,22,25,16.40
2007,06,27,22,26,16.50
2007,06,27,22,27,16.50
2007,06,27,22,28,16.50
2007,06,27,22,29,16.60
2007,06,27,22,30,16.70
2007,06,27,22,31,16.80
2007,06,27,22,32,16.80
2007,06,27,22,33,16.80
2007,06,27,22,34,16.80
2007,06,27,22,35,16.90
2007,06,27,22,36,16.90
2007,06,27,22,37,17.00
2007,06,27,22,38,17.00
2007,06,27,22,39,17.00
2007,06,27,22,40,17.10
2007,06,27,22,41,17.10
2007,06,27,22,42,17.10
2007,06,27,22,43,17.10
2007,06,27,22,44,17.10
2007,06,27,22,45,17.10
2007,06,27,22,46,17.10
2007,06,27,22,47,17.10
2007,06,27,22,48,17.10
2007,06,27,22,49,17.10
2007,06,27,22,50,17.10
2007,06,27,22,51,17.10
2007,06,27,22,52,17.10
2007,06,27,22,53,17.10
2007,06,27,22,54,17.00
2007,06,27,22,55,17.00
2007,06,27,22,56,16.90
2007,06,27,22,57,16.90
2007,06,27,22,58,16.90
2007,06,27,22,59,16.80
2007,06,27,23,00,16.80
2007,06,27,23,01,16.80
2007,06,27,23,02,16.80